Location: Wanzleben
(52.0609°N, 11.4408°E)
Time: 02:51:44
(UTC+00:00)

COSMOS 2406 - Pass Details

Date: 21 January 2021
Orbit: 841 x 865 km, 71.0° (Epoch: 05 March)

Event Time Altitude Azimuth Distance (km) Brightness Sun altitude
Rises 20:41:20 0° 316° (NW) 3,458 7.1 -44.6°
Reaches altitude 10° 20:45:17 10° 290° (WNW) 2,513 6.2 -45.1°
Enters shadow 20:46:40 12° 276° (W) 2,351 6.0 -45.3°
